SCP
0 0 0 0 0 0 0 0 0 0 0 0 0 0 0 0 0 0 0 0 0 0 0 0 0 0 0 0 0 0 0 0 0 0 0 0 0 0 0 0 0 0 0 0 0 0 0 0 0
0 0 0 0 0 0 0 0 0 0 0 0 0 0 0 0 0 0 0 0 0 0 0 0 0 0 0 0 0 0 0 0 0 0 0 0 0 0 0 0 0 0 0 0 0 0 0 0 0
0 0 0 0 0 0 0 0 0 0 0 0 0 0 0 0 0 0 0 0 0 0 0 0 0 0 0 0 0 0 0 0 0 0 0 0 0 0 0 0 0 0 0 0 0 0 0 0 0
0 0 0 0 0 0 0 0 0 0 0 0 0 0 0 0 0 0 0 0 0 0 0 0 0 0 0 0 0 0 0 0 0 0 0 0 0 0 0 0 0 0 0 0 0 0 0 0 0
-0 -0 -0 0 0 0 0 0 0 0 0 0 0 0 0 0 0 0 0 0 0 0 0 0 0 0 0 0 0 0 0 0 0 0 0 0 0 0 0 0 0 0 0 0 0 0 0 0 0
-0 -0 -0 0 0 0 0 0 0 0 0 0 0 0 0 0 0 0 0 0 0 0 0 0 0 0 0 0 0 0 0 0 0 0 0 0 0 0 0 0 0 0 0 0 0 0 0 0 0
0 0 0 0 0 0 0 0 0 0 0 0 0 0 0 0 0 0 0 0 0 0 0 0 0 0 0 0 0 0 0 0 0 0 0 0 0 0 0 0 0 0 0 0 0 0 0 0 0
0 0 0 0 0 0 0 0 0 0 0 0 0 0 0 0 0 0 0 0 0 0 0 0 0 0 0 0 0 0 0 0 0 0 0 0 0 0 0 0 0 0 0 0 0 0 0 0 0
0 0 0 0 0 0 0 0 0 0 0 0 0 0 0 0 0 0 0 0 0 0 0 0 0 0 0 0 0 0 0 0 0 0 0 0 0 0 0 0 0 0 0 0 0 0 0 0 0
0 0 0 0 0 0 0 0 0 0 0 0 0 0 0 0 0 0 0 0 0 0 0 0 0 0 0 0 0 0 0 0 0 0 0 0 0 0 0 0 0 0 0 0 0 0 0 0 0
0 0 0 0 0 0 0 0 0 0 0 0 0 1 1 1 0 0 0 0 0 0 0 0 0 0 0 0 0 0 0 0 0 0 0 0 0 0 0 0 0 0 0 0 0 0 0 0 0
0 0 0 0 0 0 0 0 0 0 0 0 1 1 1 0 0 0 0 0 0 0 0 0 0 0 0 0 0 0 0 0 0 0 0 0 0 0 0 0 0 0 0 0 0 0 0 0 0
0 0 0 0 0 0 0 0 0 0 0 0 1 1 1 0 0 0 0 0 0 0 0 0 0 0 0 0 0 0 0 0 0 0 0 0 0 0 0 0 0 0 0 0 0 0 0 0 0
0 0 0 0 0 0 0 0 0 0 0 0 1 1 0 0 0 0 0 0 0 0 0 0 0 0 0 0 0 0 0 0 0 0 0 0 0 0 0 0 0 0 0 0 0 0 0 0 0
0 0 0 0 0 0 0 0 0 0 0 0 0 0 0 0 0 0 0 0 0 0 0 0 0 0 0 0 0 0 0 0 0 0 0 0 0 0 0 0 0 0 0 0 0 0 0 0 0
0 0 0 0 0 0 0 0 0 0 0 0 0 0 0 0 0 0 0 0 0 0 0 0 0 0 0 0 0 0 0 0 0 0 0 0 0 0 0 0 0 0 0 0 0 0 0 0 0
0 0 0 0 0 0 0 0 0 0 0 0 0 0 0 0 0 0 0 0 0 0 0 0 0 0 0 0 0 0 0 0 0 0 0 0 0 0 0 0 0 0 0 0 0 0 0 0 0
0 0 0 0 0 0 0 0 0 0 0 0 0 0 0 0 0 0 0 0 0 0 0 0 0 0 0 0 0 0 0 0 0 0 0 0 0 0 0 0 0 0 0 0 0 0 0 0 0
0 0 0 0 0 0 0 0 0 0 0 0 0 0 0 0 0 0 0 0 0 0 0 0 0 0 0 0 0 0 0 0 0 0 0 0 0 0 0 0 0 0 0 0 0 0 0 0 0
0 0 0 0 0 0 0 0 0 0 0 0 0 0 0 0 0 0 0 0 0 0 0 0 0 0 0 0 0 0 0 0 0 0 0 0 0 0 0 0 0 0 0 0 0 0 0 0 0
0 0 0 0 0 0 0 0 0 0 0 0 0 0 0 0 1 1 1 1 1 1 1 0 0 0 0 0 0 0 0 0 0 0 0 0 0 0 0 0 0 0 0 0 0 0 0 0 0
0 0 0 0 0 0 0 0 0 0 0 0 0 0 0 1 1 1 1 1 1 1 1 1 1 1 1 1 1 0 0 0 0 0 0 0 0 0 0 0 0 0 0 0 0 0 0 0 0
0 0 0 0 0 0 0 0 0 0 0 0 0 0 0 1 1 1 1 1 1 1 1 1 1 1 1 1 1 1 0 0 0 0 0 0 0 0 0 0 0 0 0 0 0 0 0 0 0
0 0 0 0 0 0 0 0 0 0 0 0 0 0 0 1 1 1 1 1 1 1 1 1 1 1 1 1 1 1 0 0 0 0 0 0 0 0 0 0 0 0 0 0 0 0 0 0 0
0 0 0 0 0 0 0 0 0 0 0 0 0 0 1 1 1 1 1 1 1 1 1 1 1 1 1 0 0 0 0 0 0 0 0 0 0 0 0 0 0 0 0 0 0 0 0 0 0
0 0 0 0 0 0 0 0 0 0 0 0 0 0 1 1 1 1 1 1 1 1 1 1 1 1 1 0 0 0 0 0 0 0 0 0 0 0 0 0 0 0 0 0 0 0 0 0 0
0 0 0 0 0 0 0 0 0 0 0 0 0 0 1 1 1 1 1 1 1 1 1 1 1 1 1 0 0 0 0 0 0 0 0 0 0 0 0 0 0 0 0 0 0 0 0 0 0
0 0 0 0 0 0 0 0 0 0 0 0 0 0 1 1 1 1 1 1 1 1 1 1 1 1 1 0 0 0 0 0 0 0 0 0 0 0 0 0 0 0 0 0 0 0 0 0 0
0 0 0 0 0 0 0 0 0 0 0 0 0 0 0 1 1 1 1 1 1 1 1 1 1 1 1 0 0 0 0 0 0 0 0 0 0 0 0 0 0 0 0 0 0 0 0 0 0
0 0 0 0 0 0 0 0 0 0 0 0 0 0 0 1 1 1 1 1 1 1 1 1 1 1 1 0 0 0 0 0 0 0 0 0 0 0 0 0 0 0 0 0 0 0 0 0 0
Wind_Speed
4 2 1 2 5 6 3 2 0 1 2 2 4 6 7 4 2 4 4 7 9 8 6 9 13 14 14 15 16 16 16 17 17 17 17 17 17 16 16 16 16 16 16 16 15 15 15 15 15
1 1 2 4 6 4 3 2 2 1 3 4 5 6 7 5 5 8 6 7 10 8 6 8 14 14 14 14 15 15 16 16 16 16 16 16 16 16 16 16 15 15 15 15 15 15 15 15 15
2 0 4 5 4 3 1 1 2 3 3 3 4 6 5 5 7 5 6 10 9 7 5 8 14 14 14 14 14 14 15 15 15 15 15 15 15 15 15 15 14 14 14 15 15 14 15 14 14
2 4 5 6 2 2 3 2 3 3 3 5 5 6 5 5 5 7 12 11 10 6 5 8 14 14 13 13 13 14 14 14 14 14 14 14 14 14 14 14 14 14 14 14 14 14 14 13 13
4 5 6 4 2 2 2 4 3 3 2 4 4 5 4 4 10 14 12 11 9 6 5 7 14 13 13 13 13 13 13 13 13 13 13 13 13 13 13 13 13 13 13 13 13 13 12 12 12
5 5 5 1 2 1 1 3 3 3 3 4 5 5 4 6 12 13 11 9 7 7 6 7 13 13 12 12 13 12 12 12 12 13 13 12 12 12 12 12 12 12 12 12 12 12 11 11 11
4 5 3 1 1 1 1 2 4 4 4 4 4 6 4 7 9 11 10 8 7 6 5 5 6 8 11 12 12 12 11 11 12 12 12 11 11 11 11 11 11 11 11 11 11 11 10 10 10
5 5 2 0 1 1 2 3 3 4 3 4 4 8 7 9 11 11 9 7 6 5 5 4 4 5 5 6 11 11 11 11 11 11 11 11 10 10 10 9 9 10 10 10 10 10 10 9 9
4 5 1 3 4 2 3 3 2 3 5 3 3 4 9 17 15 13 11 8 7 6 4 4 4 4 4 4 7 8 10 9 9 8 10 8 4 5 5 7 8 9 8 8 9 9 9 8 8
4 3 5 4 4 3 3 4 5 4 3 3 5 10 17 17 16 15 15 13 11 9 6 4 5 5 4 4 4 3 3 4 4 4 5 4 3 3 4 5 7 8 7 7 7 7 7 6 4
4 5 4 3 3 3 4 4 5 8 5 7 12 19 20 18 15 14 13 12 11 10 9 6 5 5 4 3 3 2 2 3 3 4 4 4 3 2 3 2 3 4 4 4 4 4 3 3 3
3 4 3 3 2 3 5 6 5 6 7 8 16 21 22 19 17 15 14 12 10 10 9 7 6 5 4 3 3 3 2 2 2 3 4 3 2 2 2 1 2 2 2 2 2 2 2 3 3
3 3 2 3 2 3 4 4 4 4 4 13 17 18 19 18 15 11 10 10 10 10 10 8 7 6 4 4 3 3 3 3 3 2 3 3 2 2 2 1 1 1 1 1 2 2 2 2 3
2 3 4 3 1 3 5 2 3 3 11 16 18 17 17 16 14 11 10 10 11 11 10 9 8 7 5 4 3 3 3 3 2 2 3 3 3 2 2 1 1 0 1 1 1 2 2 2 2
1 2 4 2 1 2 6 1 3 6 13 16 16 15 15 13 13 14 14 13 12 11 9 9 8 7 7 6 5 4 3 3 3 3 3 3 3 3 2 2 1 1 1 1 2 2 2 2 2
2 3 2 4 1 3 7 5 4 10 15 14 14 14 14 12 13 12 12 11 10 9 10 10 10 9 7 6 5 3 3 3 3 3 3 4 4 4 3 2 2 1 1 1 2 2 2 1 2
4 2 1 3 1 2 4 4 4 10 13 13 13 13 13 11 11 11 12 11 11 11 10 10 9 9 8 7 5 4 3 4 3 3 3 4 4 5 3 2 2 2 2 2 2 1 2 2 1
3 2 1 2 1 2 2 3 4 9 12 13 13 12 12 14 15 12 12 11 10 10 9 10 9 8 7 5 4 3 2 3 3 3 4 4 4 5 4 3 3 3 2 2 1 2 1 1 2
4 3 1 3 2 1 3 4 6 9 10 11 11 12 13 14 11 9 10 11 10 10 10 10 9 8 7 5 5 4 4 3 3 3 4 5 5 5 4 3 3 3 3 3 3 2 2 1 1
2 1 1 3 2 0 2 4 5 9 14 15 16 15 14 11 9 11 11 11 12 13 12 11 10 10 9 7 5 3 3 3 3 3 3 5 5 5 5 5 4 4 3 3 3 3 2 1 2
3 4 3 2 4 3 1 4 2 4 6 7 9 10 11 14 14 13 14 14 14 14 14 13 12 10 9 8 4 3 3 2 2 2 3 4 5 5 5 5 5 4 4 4 4 4 4 3 1
4 5 5 2 1 3 1 2 6 4 5 8 10 10 12 13 13 13 14 14 15 14 12 11 11 10 9 9 8 7 6 5 5 4 4 4 5 5 6 5 5 5 4 4 4 4 3 4 3
6 3 3 2 3 1 1 2 7 2 6 11 12 13 13 13 13 14 16 15 13 12 11 10 10 9 9 9 10 8 5 4 3 3 4 4 4 5 5 5 5 5 4 5 5 4 4 3 4
5 5 6 6 5 1 4 4 7 5 9 9 11 12 12 12 12 12 11 10 10 10 10 9 10 9 9 10 9 9 8 7 5 5 5 4 3 3 5 5 5 5 4 5 5 5 5 4 4
5 6 4 3 2 6 3 3 10 8 8 10 11 12 12 10 11 11 13 13 13 13 12 11 11 10 10 10 9 9 9 9 8 7 6 5 4 4 5 5 5 4 5 5 5 5 5 5 5
6 10 9 6 5 4 1 6 9 6 5 7 7 8 8 10 11 13 14 14 13 14 13 13 12 11 10 10 9 8 8 6 6 6 6 6 5 5 5 6 6 6 6 6 5 4 5 5 5
7 5 7 7 2 0 4 6 9 3 3 3 3 5 7 10 11 11 12 12 12 13 13 13 12 10 10 10 8 7 8 7 6 6 5 5 5 5 5 6 6 6 6 6 5 4 5 5 5
7 9 6 6 6 2 4 4 5 4 4 3 3 5 6 7 8 9 10 11 10 10 10 10 10 10 9 8 8 8 7 7 6 6 7 6 6 5 5 6 6 5 5 5 5 4 5 5 5
4 4 5 5 6 7 2 7 6 6 4 4 5 5 6 7 9 9 8 8 8 8 10 10 10 9 9 9 9 7 7 7 6 6 7 6 5 6 6 6 6 6 5 5 5 5 5 6 6
5 7 8 6 4 4 4 8 5 3 4 3 3 3 2 5 6 7 8 8 8 9 9 9 9 9 9 9 8 7 6 6 7 7 6 6 6 6 6 6 6 6 6 6 6 7 7 7 7
Wind_Direction
300 291 156 85 55 48 31 347 19 75 62 60 92 93 100 82 116 135 123 133 128 130 130 124 119 114 110 108 108 106 104 104 105 106 107 107 107 106 104 103 103 104 104 103 101 99 99 99 99
305 252 62 58 73 57 337 331 25 69 126 108 79 78 76 68 73 105 127 136 131 129 125 127 125 119 115 112 110 109 108 106 105 107 107 107 106 106 104 103 103 104 104 103 102 101 100 99 99
286 84 75 66 84 145 208 299 112 105 110 85 82 70 77 104 117 121 141 135 123 122 122 135 128 124 120 117 114 112 111 110 109 108 108 106 106 105 104 103 104 104 103 103 103 103 102 101 101
64 46 52 65 79 208 192 186 134 118 66 60 96 80 73 102 124 129 134 133 124 121 126 137 131 128 125 122 119 117 116 114 113 111 110 109 108 107 107 106 106 104 103 103 103 103 103 101 102
58 70 57 43 310 267 192 173 149 132 90 81 91 86 59 46 111 127 133 133 129 126 128 136 135 133 129 126 123 121 120 119 117 115 113 111 111 111 110 109 107 106 105 104 103 103 103 103 105
53 62 73 31 311 312 182 164 130 103 98 95 91 92 73 117 127 135 133 130 130 130 129 136 140 138 135 131 128 126 124 123 122 119 117 115 113 112 111 110 109 108 106 105 105 105 103 106 108
95 88 119 173 302 329 175 127 128 123 118 120 111 102 112 141 138 133 129 127 125 124 124 128 136 140 140 137 135 132 129 127 125 122 122 120 118 116 113 111 111 110 108 107 108 107 104 107 111
117 99 94 204 159 239 150 105 99 117 111 113 117 138 159 160 140 129 126 124 124 121 121 123 121 121 128 136 141 138 136 134 131 129 127 124 121 117 115 111 112 110 109 108 109 107 104 104 110
89 77 158 207 181 190 145 113 96 100 118 126 120 143 146 142 139 137 139 142 148 146 132 129 125 123 123 134 148 142 142 139 133 131 129 113 88 90 104 117 117 114 111 108 106 103 101 99 105
92 130 221 213 191 170 156 141 149 133 133 108 91 108 129 144 150 155 160 165 168 168 162 147 141 138 137 148 124 110 112 109 99 94 99 91 87 87 100 108 115 110 104 101 99 95 91 86 86
148 189 230 238 212 172 149 144 147 144 195 190 157 146 149 154 161 166 170 172 173 171 171 164 157 150 144 129 123 105 98 99 98 103 103 99 88 77 71 66 73 73 76 68 75 75 76 88 99
177 237 227 253 202 164 161 149 151 183 217 165 155 152 156 164 172 176 175 175 170 172 178 170 166 157 153 138 132 125 121 120 120 121 121 114 106 96 89 83 75 68 65 71 73 77 80 93 109
207 256 253 248 247 183 146 154 162 204 141 129 143 154 165 172 176 178 176 172 171 178 180 176 171 167 159 147 153 148 147 148 146 141 141 138 134 134 123 109 86 77 71 80 88 86 92 98 111
228 247 287 285 228 171 144 136 134 184 137 140 155 167 174 177 175 172 173 177 181 184 183 177 177 172 164 163 163 157 159 155 154 159 165 159 153 154 149 146 127 86 93 101 103 103 105 102 117
294 327 340 339 147 155 116 85 199 161 148 155 168 173 177 181 179 183 183 182 183 185 181 180 180 172 171 174 177 169 167 163 173 175 176 173 170 169 164 165 171 174 118 112 101 98 97 112 123
61 60 356 313 76 141 133 212 215 157 158 168 177 181 184 187 190 190 185 182 180 178 179 182 187 178 179 178 176 165 168 172 183 179 181 186 182 177 172 174 186 171 135 126 125 116 106 103 121
40 109 198 308 350 124 147 214 202 166 169 177 184 188 189 190 196 194 189 185 182 180 179 181 185 180 183 178 172 168 169 182 186 184 189 194 189 181 176 184 187 163 148 153 165 123 131 139 143
189 160 170 246 308 108 174 226 200 180 182 186 188 191 192 198 203 194 188 186 182 179 179 182 184 179 174 166 156 156 171 193 192 192 195 191 188 180 173 182 182 163 152 159 153 137 113 130 145
150 132 204 260 284 183 218 235 215 189 188 192 195 197 201 206 198 185 186 184 180 179 181 183 184 178 169 167 171 171 186 194 198 201 195 190 187 180 179 186 177 172 175 181 163 142 128 114 116
149 137 276 305 339 231 246 266 232 194 196 197 197 200 203 198 185 187 184 185 187 188 188 186 188 183 180 183 177 167 164 180 190 193 192 192 189 185 191 188 182 176 172 172 171 153 139 141 149
191 188 208 252 346 13 69 323 277 232 214 207 208 205 203 198 195 191 190 191 190 193 192 192 192 186 182 173 154 136 117 112 151 190 199 200 194 195 193 191 183 177 177 188 190 177 164 168 180
226 212 192 192 67 307 81 272 274 231 227 220 216 209 209 204 197 194 194 193 196 196 191 189 185 181 177 171 171 171 176 184 193 186 192 198 199 196 195 191 185 183 184 190 197 190 179 164 177
202 191 173 165 156 284 324 172 279 230 228 232 222 215 212 204 197 196 197 195 192 187 185 185 179 180 176 178 180 179 183 187 175 169 182 198 204 204 198 190 186 190 194 197 197 187 187 182 180
158 77 56 49 81 237 229 171 267 226 219 229 224 218 212 204 197 196 193 182 180 178 179 178 179 184 181 182 183 184 184 177 170 179 188 199 203 209 203 194 194 195 197 202 203 198 193 196 192
124 100 54 17 28 242 244 187 246 244 227 223 223 218 210 198 192 188 185 183 182 180 180 180 185 189 186 185 187 189 187 183 187 188 194 194 200 210 211 201 198 199 204 209 202 198 202 199 198
167 143 155 178 202 258 249 221 250 257 254 239 228 217 206 197 194 191 190 187 184 182 182 183 187 191 188 191 192 189 187 190 196 194 193 198 205 211 205 203 205 202 203 208 199 205 208 204 207
141 177 158 128 150 179 276 282 299 286 298 270 241 211 205 202 196 192 188 185 182 182 185 186 186 190 191 193 190 190 192 194 197 196 197 201 205 206 202 206 209 208 205 203 196 209 214 207 213
144 145 113 124 143 208 287 276 254 273 280 288 262 236 223 205 190 185 184 182 180 179 178 178 183 190 189 187 194 198 196 198 196 193 200 203 204 204 198 206 208 209 208 203 202 212 215 211 219
110 108 112 120 147 151 205 266 235 230 240 252 255 242 220 201 189 182 180 174 168 166 172 179 181 183 185 190 198 199 196 197 194 199 204 200 198 200 203 203 203 207 211 207 207 216 216 220 226
152 158 144 147 188 165 163 261 272 241 256 245 254 255 217 185 171 162 158 154 161 170 176 180 183 188 191 190 190 196 192 187 194 204 204 196 199 203 204 199 202 211 214 211 212 221 222 223 228